Location: �terpigny
(49.8910°N, 2.9249°E)
Time: 06:18:50
(UTC+00:00)

O/OREOS (USA 219) - Visible Passes

Search period start: 28 June 2022 00:00
Search period end: 08 July 2022 00:00
Orbit: 621 x 646 km, 72.0° (Epoch: 22 May)

Date Brightness Start Highest point End Pass type
(mag) Time Alt. Az. Time Alt. Az. Time Alt. Az.
28 Jun ? 01:18:59 10° NW 01:23:22 44° WSW 01:26:01 21° S visible
28 Jun ? 22:23:49 10° NNE 22:25:34 12° NE 22:27:18 10° ENE visible
29 Jun ? 00:01:34 10° NNW 00:06:05 52° ENE 00:09:40 16° SE visible
29 Jun ? 01:41:36 10° NW 01:45:10 22° WSW 01:47:04 17° SW visible
29 Jun ? 22:44:53 10° N 22:48:11 19° NE 22:51:28 10° E visible
30 Jun ? 00:23:34 10° NNW 00:28:12 81° WSW 00:30:47 26° SSE visible
30 Jun ? 02:05:30 10° W 02:06:48 11° W 02:08:06 10° WSW visible
30 Jun ? 23:06:31 10° NNW 23:10:38 31° NE 23:14:33 11° ESE visible
01 Jul ? 00:45:50 10° NW 00:50:09 40° WSW 00:51:58 28° SSW visible
01 Jul ? 21:50:25 10° N 21:52:28 13° NE 21:54:31 10° ENE visible
01 Jul ? 23:28:21 10° NNW 23:32:55 57° ENE 23:35:47 22° SE visible
02 Jul ? 01:08:32 10° NW 01:11:56 20° WSW 01:13:12 18° SW visible
02 Jul ? 22:11:38 10° N 22:15:04 20° NE 22:18:30 10° E visible
02 Jul ? 23:50:24 10° NNW 23:55:00 74° WSW 23:57:05 32° SSE visible
03 Jul ? 22:33:17 10° NNW 22:37:29 34° NE 22:41:00 14° ESE visible
04 Jul ? 00:12:42 10° NW 00:16:56 36° WSW 00:18:25 29° SW visible
04 Jul ? 21:17:03 10° N 21:19:21 13° NE 21:21:40 10° ENE visible
04 Jul ? 22:55:09 10° NNW 22:59:45 63° ENE 23:02:22 25° SE visible
05 Jul ? 00:35:30 10° WNW 00:38:42 19° W 00:39:47 17° WSW visible
05 Jul ? 21:38:22 10° N 21:41:57 22° NE 21:45:31 10° E visible
05 Jul ? 23:17:13 10° NNW 23:21:49 67° WSW 23:23:47 33° S visible
06 Jul ? 22:00:03 10° NNW 22:04:21 36° NE 22:07:48 15° ESE visible
06 Jul ? 23:39:35 10° NW 23:43:44 33° WSW 23:45:14 26° SW visible
07 Jul ? 20:43:43 10° N 20:46:15 14° NE 20:48:47 10° ENE visible
07 Jul ? 22:21:56 10° NNW 22:26:35 69° ENE 22:29:17 24° SE visible
